[[{"header":{"parameterUnit":"m.s-1","parameterCategory":1,"la1":30.2991,"la2":30.254,"lo1":-89.0895,"lo2":-89.0444,"dy":0.0017,"dx":0.0017,"nx":28,"ny":28,"refTime":"2023-09-23T09:00:00:Z","depth":0,"parameterNumber":2,"parameterNumberName":"U-component_of_WINDS"},"data":[0,0,0,0,0,0,0,0,0,0,0,0,0,0,0,0,0,0,0,0,0,0,0,0,0,0,0,0,0,0,0,0,0,0,0,0,0,0,0,0,0,0,0,0,0,0,0,0,0,0,0,0,0,0,0,0,0,0,-1.3807,-1.3807,0,-1.3778,-1.3777,-1.3777,-1.374,-1.3739,-1.3739,-1.3738,-1.3708,-1.3708,-1.3707,0,0,0,0,0,0,0,0,0,0,0,0,0,-1.3831,-1.3831,-1.3807,-1.3807,-1.3806,-1.3778,-1.3777,-1.3777,-1.374,-1.3739,-1.3739,-1.3738,-1.3708,-1.3708,-1.3707,0,0,0,0,0,0,0,0,0,0,0,0,0,-1.3813,-1.3831,-1.3807,-1.3785,-1.3782,-1.3778,-1.3777,-1.3777,-1.374,-1.3739,-1.3739,-1.3738,-1.3708,-1.3708,-1.3707,-1.3723,0,0,-1.3706,-1.3706,0,0,0,0,0,0,0,0,-1.3814,-1.3812,-1.3788,-1.3786,-1.3784,-1.3762,-1.3775,-1.3759,-1.3741,-1.3756,-1.3738,-1.3737,-1.3727,-1.3725,-1.3721,-1.3721,-1.372,-1.3706,-1.3706,-1.3706,-1.3706,0,0,0,0,0,0,0,-1.3816,-1.3813,-1.3795,-1.3788,-1.3785,-1.3776,-1.3772,-1.3771,-1.3747,-1.3755,-1.3752,-1.3749,-1.3725,-1.3721,-1.372,-1.3719,-1.3706,-1.3706,-1.3706,-1.3705,-1.3729,-1.373,0,0,0,0,0,0,-1.382,-1.3815,-1.3796,-1.3794,-1.3797,-1.3776,-1.3772,-1.377,-1.3747,-1.3742,-1.375,-1.3747,-1.3723,-1.372,-1.3719,-1.3734,-1.3706,-1.3705,-1.3705,-1.3729,-1.373,-1.373,0,0,0,0,0,0,-1.3821,-1.3819,-1.3798,-1.3804,-1.38,-1.3777,-1.3774,-1.3769,-1.3766,-1.3743,-1.3738,-1.3751,-1.3722,-1.3719,-1.3722,-1.3732,-1.3705,-1.3705,-1.3727,-1.3729,-1.373,-1.3765,0,0,0,0,0,0,-1.3822,-1.3819,-1.3825,-1.3804,-1.38,-1.3801,-1.3775,-1.3769,-1.3765,-1.3762,-1.3742,-1.3738,-1.3721,-1.3722,-1.3721,-1.3731,-1.3705,-1.3726,-1.3728,-1.373,-1.3763,-1.3768,-1.3772,0,0,0,0,0,-1.3823,-1.3836,-1.3826,-1.3824,-1.3807,-1.3802,-1.3799,-1.3779,-1.3766,-1.3771,-1.3757,-1.3739,-1.3732,-1.3723,-1.3721,-1.3732,-1.3726,-1.3728,-1.3729,-1.3761,-1.3767,-1.3771,0,0,0,0,0,0,-1.3859,-1.3833,-1.3821,-1.3828,-1.3817,-1.3796,-1.3802,-1.3786,-1.3779,-1.3776,-1.3751,-1.3747,-1.3752,-1.3742,-1.3733,-1.3744,-1.3726,-1.3728,-1.3751,-1.3756,-1.376,-1.3762,-1.3704,0,0,0,0,0,-1.3868,-1.3866,-1.3844,-1.3852,-1.3847,-1.3826,-1.3823,-1.3808,-1.3796,-1.3791,-1.3777,-1.3765,-1.376,-1.3758,-1.3752,-1.3762,-1.3756,-1.3768,-1.3772,-1.3776,-1.3777,-1.3781,-1.3785,-1.3737,-1.3737,-1.3737,0,0,-1.3886,-1.3872,-1.3872,-1.3859,-1.3849,-1.3847,-1.3822,-1.3822,-1.382,-1.3791,-1.3792,-1.3781,-1.3767,-1.3773,-1.3775,-1.3765,-1.379,-1.3778,-1.3781,-1.3781,-1.3783,-1.3788,-1.3792,-1.3738,-1.3738,-1.3738,0,0,-1.3918,-1.3908,-1.3913,-1.3904,-1.3889,-1.3874,-1.3875,-1.3856,-1.3847,-1.3848,-1.3826,-1.3824,-1.3816,-1.3807,-1.3801,-1.3829,-1.3812,-1.3828,-1.385,-1.3854,-1.3858,-1.3861,-1.387,-1.3874,-1.383,-1.383,-1.383,0,-1.3943,-1.3939,-1.3918,-1.3919,-1.3913,-1.3887,-1.3892,-1.3884,-1.3868,-1.3865,-1.3854,-1.3843,-1.3832,-1.3835,-1.3842,-1.3838,-1.3838,-1.383,-1.3859,-1.3862,-1.3864,-1.3873,-1.3876,-1.3832,-1.3832,-1.3832,-1.3831,0,-1.397,-1.3968,-1.3974,-1.3959,-1.3954,-1.3958,-1.3936,-1.3934,-1.392,-1.3906,-1.3907,-1.3893,-1.3883,-1.3883,-1.3869,-1.3884,-1.3878,-1.3863,-1.3844,-1.3871,-1.3879,-1.3882,-1.3835,-1.3834,-1.3834,-1.3833,0,0,-1.4023,-1.3996,-1.3999,-1.3991,-1.3973,-1.3971,-1.3973,-1.3963,-1.3961,-1.3952,-1.3952,-1.3946,-1.3932,-1.3926,-1.3911,-1.3914,-1.3936,-1.3899,-1.3898,-1.3905,-1.395,-1.396,-1.3964,-1.3925,-1.3926,-1.3926,-1.3951,0,-1.4051,-1.4052,-1.4033,-1.4039,-1.4037,-1.4012,-1.4013,-1.4002,-1.3989,-1.3985,-1.3971,-1.3967,-1.395,-1.3946,-1.3948,-1.3933,-1.3945,-1.3931,-1.3924,-1.3924,-1.3928,-1.3968,-1.3979,-1.4003,-1.3954,-1.3954,-1.3954,0,-1.4083,-1.4075,-1.4081,-1.4062,-1.406,-1.4062,-1.4051,-1.4048,-1.4034,-1.4025,-1.4018,-1.4,-1.4,-1.3983,-1.3982,-1.3973,-1.3969,-1.3962,-1.3962,-1.396,-1.394,-1.3966,-1.401,-1.4013,-1.3959,-1.3959,-1.3958,0,-1.4121,-1.4111,-1.4113,-1.4107,-1.4085,-1.4087,-1.4078,-1.4063,-1.4059,-1.405,-1.4046,-1.4038,-1.4033,-1.4026,-1.4007,-1.3996,-1.4008,-1.3989,-1.3999,-1.3999,-1.4002,-1.4002,-1.4044,-1.4001,-1.4001,-1.4001,-1.4001,0,-1.4153,-1.4157,-1.4129,-1.413,-1.4134,-1.4112,-1.4117,-1.4105,-1.4092,-1.4091,-1.4069,-1.4068,-1.4043,-1.4039,-1.4024,-1.4025,-1.4023,-1.4015,-1.401,-1.4016,-1.4017,-1.4012,-1.401,-1.4002,-1.4002,-1.4002,-1.4002,0,-1.4195,-1.4176,-1.4176,-1.4155,-1.415,-1.4154,-1.4136,-1.4136,-1.4122,-1.412,-1.4118,-1.4096,-1.409,-1.4071,-1.406,-1.405,-1.4055,-1.4047,-1.4059,-1.4056,-1.4067,-1.4066,-1.4108,-1.4111,-1.4067,-1.4068,-1.4068,0,-1.4216,-1.4219,-1.4198,-1.4195,-1.4187,-1.4183,-1.4178,-1.4156,-1.4152,-1.4137,-1.4138,-1.4131,-1.4123,-1.4114,-1.4097,-1.4089,-1.408,-1.4096,-1.4079,-1.4084,-1.4079,-1.4079,-1.4078,-1.4099,-1.41,-1.41,-1.41,0,-1.4256,-1.4246,-1.424,-1.423,-1.4225,-1.4217,-1.4207,-1.4206,-1.4182,-1.4178,-1.4171,-1.4165,-1.4154,-1.4146,-1.4135,-1.4125,-1.4108,-1.4106,-1.4108,-1.4113,-1.4119,-1.4114,-1.4068,-1.4105,-1.4104,-1.4104,-1.4104,-1.4104,-1.4287,-1.4288,-1.4273,-1.4267,-1.4257,-1.4248,-1.4247,-1.4233,-1.4227,-1.4216,-1.4204,-1.4199,-1.4184,-1.4167,-1.4159,-1.4154,-1.4145,-1.4148,-1.4148,-1.4149,-1.4151,-1.4121,-1.4152,-1.4152,-1.4152,-1.4152,-1.4151,0,-1.4324,-1.4314,-1.4308,-1.4295,-1.429,-1.4275,-1.4263,-1.426,-1.4255,-1.4244,-1.4237,-1.4229,-1.4221,-1.4204,-1.4194,-1.4193,-1.4186,-1.4192,-1.4191,-1.4189,-1.416,-1.4159,-1.4198,-1.4198,-1.4198,-1.4198,-1.4198,-1.4198,-1.4343,-1.4344,-1.4332,-1.4328,-1.4317,-1.4311,-1.4306,-1.4297,-1.4288,-1.428,-1.4273,-1.4262,-1.4248,-1.4237,-1.4229,-1.4224,-1.4221,-1.4229,-1.4222,-1.4195,-1.4191,-1.4186,-1.4185,-1.4229,-1.4229,-1.425,-1.425,-1.425]},{"header":{"parameterUnit":"m.s-1","parameterCategory":1,"la1":30.2991,"la2":30.254,"lo1":-89.0895,"lo2":-89.0444,"dy":0.0017,"dx":0.0017,"nx":28,"ny":28,"refTime":"2023-09-23T09:00:00:Z","depth":0,"parameterNumber":3,"parameterNumberName":"V-component_of_WINDS"},"data":[0,0,0,0,0,0,0,0,0,0,0,0,0,0,0,0,0,0,0,0,0,0,0,0,0,0,0,0,0,0,0,0,0,0,0,0,0,0,0,0,0,0,0,0,0,0,0,0,0,0,0,0,0,0,0,0,0,0,-0.228,-0.2281,0,-0.2365,-0.2366,-0.2367,-0.243,-0.2431,-0.2431,-0.2432,-0.2519,-0.2521,-0.2523,0,0,0,0,0,0,0,0,0,0,0,0,0,-0.217,-0.2172,-0.228,-0.2281,-0.2282,-0.2365,-0.2366,-0.2367,-0.243,-0.2431,-0.2431,-0.2432,-0.2519,-0.2521,-0.2523,0,0,0,0,0,0,0,0,0,0,0,0,0,-0.2233,-0.2173,-0.2279,-0.2323,-0.2328,-0.2365,-0.2366,-0.2368,-0.243,-0.2431,-0.2432,-0.2432,-0.2518,-0.2521,-0.2523,-0.2524,0,0,-0.2532,-0.2533,0,0,0,0,0,0,0,0,-0.2229,-0.2237,-0.2316,-0.232,-0.2326,-0.2388,-0.236,-0.242,-0.243,-0.2391,-0.2432,-0.2433,-0.2475,-0.2481,-0.2496,-0.2528,-0.2532,-0.2532,-0.2534,-0.2535,-0.2536,0,0,0,0,0,0,0,-0.2225,-0.2234,-0.2313,-0.2317,-0.2323,-0.2338,-0.2348,-0.2372,-0.2427,-0.2395,-0.2399,-0.2409,-0.2478,-0.2493,-0.2498,-0.2533,-0.2532,-0.2534,-0.2536,-0.2537,-0.257,-0.2569,0,0,0,0,0,0,-0.2214,-0.223,-0.2311,-0.2316,-0.2279,-0.234,-0.2351,-0.2367,-0.2427,-0.2437,-0.2408,-0.2411,-0.2488,-0.2495,-0.2501,-0.2506,-0.2535,-0.2537,-0.2539,-0.2571,-0.257,-0.2569,0,0,0,0,0,0,-0.2211,-0.222,-0.2307,-0.2274,-0.2286,-0.2341,-0.2359,-0.2368,-0.2383,-0.2437,-0.2448,-0.2413,-0.2489,-0.2498,-0.2518,-0.251,-0.2539,-0.2541,-0.2572,-0.257,-0.2569,-0.2515,0,0,0,0,0,0,-0.2208,-0.2219,-0.222,-0.2274,-0.2288,-0.2322,-0.2358,-0.2369,-0.2388,-0.2393,-0.2445,-0.2454,-0.249,-0.2513,-0.252,-0.2514,-0.2543,-0.2573,-0.2571,-0.257,-0.2518,-0.2512,-0.2507,0,0,0,0,0,-0.2204,-0.2201,-0.222,-0.2229,-0.229,-0.2322,-0.233,-0.2371,-0.2387,-0.2388,-0.2423,-0.2452,-0.2509,-0.2515,-0.2523,-0.2518,-0.2573,-0.2571,-0.257,-0.252,-0.2513,-0.2507,0,0,0,0,0,0,-0.2145,-0.2209,-0.223,-0.2245,-0.2277,-0.2332,-0.2335,-0.2362,-0.2391,-0.2395,-0.2445,-0.2456,-0.2471,-0.2496,-0.2501,-0.2521,-0.2545,-0.2545,-0.2504,-0.2498,-0.2493,-0.2487,-0.2545,0,0,0,0,0,-0.2134,-0.2154,-0.2209,-0.2217,-0.2232,-0.228,-0.2296,-0.2325,-0.236,-0.2374,-0.241,-0.2444,-0.2469,-0.2485,-0.2512,-0.2521,-0.2534,-0.2522,-0.2516,-0.2512,-0.2511,-0.2519,-0.2514,-0.2563,-0.2563,-0.2563,0,0,-0.2111,-0.2148,-0.2158,-0.2206,-0.2234,-0.2254,-0.2291,-0.2311,-0.2326,-0.2377,-0.2399,-0.2426,-0.2467,-0.2482,-0.249,-0.2503,-0.25,-0.251,-0.2506,-0.2508,-0.2516,-0.2512,-0.2507,-0.2562,-0.2562,-0.2562,0,0,-0.2079,-0.2109,-0.2119,-0.2147,-0.219,-0.2222,-0.2224,-0.2275,-0.2295,-0.2317,-0.2356,-0.2375,-0.2418,-0.2445,-0.2464,-0.2443,-0.2471,-0.245,-0.2423,-0.2429,-0.2425,-0.2422,-0.2414,-0.2411,-0.2449,-0.2449,-0.2449,0,-0.2045,-0.2077,-0.2121,-0.2138,-0.2158,-0.2205,-0.2215,-0.224,-0.2289,-0.2301,-0.2316,-0.237,-0.2401,-0.2423,-0.2417,-0.2432,-0.2436,-0.2444,-0.2422,-0.2419,-0.2417,-0.2411,-0.2407,-0.2446,-0.2446,-0.2447,-0.2447,0,-0.2033,-0.2054,-0.2057,-0.2103,-0.2124,-0.2137,-0.2183,-0.2198,-0.2225,-0.2256,-0.2278,-0.2316,-0.2351,-0.2358,-0.2385,-0.2384,-0.2391,-0.2413,-0.2438,-0.2409,-0.2404,-0.2401,-0.2442,-0.2443,-0.2444,-0.2444,0,0,-0.1967,-0.2037,-0.2038,-0.2059,-0.211,-0.2127,-0.2143,-0.2177,-0.2189,-0.2221,-0.2235,-0.227,-0.2291,-0.2313,-0.2343,-0.2348,-0.2329,-0.237,-0.2372,-0.2361,-0.233,-0.2314,-0.231,-0.2348,-0.2347,-0.2347,-0.2327,0,-0.1944,-0.1975,-0.2015,-0.2032,-0.2052,-0.2097,-0.211,-0.2143,-0.2172,-0.2193,-0.2225,-0.2249,-0.2274,-0.2288,-0.2295,-0.2329,-0.2323,-0.2331,-0.2362,-0.2362,-0.2351,-0.2307,-0.229,-0.227,-0.2325,-0.2325,-0.2325,0,-0.1921,-0.1951,-0.197,-0.2018,-0.2028,-0.204,-0.2075,-0.2094,-0.2132,-0.2152,-0.2177,-0.2209,-0.2228,-0.2249,-0.2276,-0.228,-0.2295,-0.2314,-0.2314,-0.2319,-0.2342,-0.2311,-0.2264,-0.2261,-0.2322,-0.2322,-0.2322,0,-0.1871,-0.1916,-0.1934,-0.1951,-0.2008,-0.2015,-0.2039,-0.2077,-0.2095,-0.2125,-0.2137,-0.2169,-0.2186,-0.221,-0.225,-0.2262,-0.2272,-0.2297,-0.229,-0.2289,-0.229,-0.229,-0.2245,-0.2299,-0.2299,-0.2299,-0.2299,0,-0.1841,-0.1851,-0.1912,-0.1923,-0.1935,-0.1981,-0.1992,-0.202,-0.2054,-0.2071,-0.2111,-0.2126,-0.2177,-0.2198,-0.223,-0.2247,-0.2254,-0.2272,-0.228,-0.2268,-0.2266,-0.2279,-0.2282,-0.2298,-0.2298,-0.2298,-0.2298,0,-0.1788,-0.1829,-0.1851,-0.1903,-0.1917,-0.1924,-0.1968,-0.198,-0.2011,-0.2032,-0.204,-0.2089,-0.2115,-0.2157,-0.2197,-0.2218,-0.2229,-0.2243,-0.2217,-0.2222,-0.2212,-0.2213,-0.2175,-0.2172,-0.2226,-0.2226,-0.2225,0,-0.1767,-0.1775,-0.1828,-0.1843,-0.1865,-0.1888,-0.1906,-0.1951,-0.1969,-0.2012,-0.2019,-0.2049,-0.2075,-0.2116,-0.2154,-0.2185,-0.2199,-0.2184,-0.2204,-0.2192,-0.22,-0.2199,-0.22,-0.2179,-0.2178,-0.2178,-0.2177,0,-0.1724,-0.1744,-0.1769,-0.1801,-0.1822,-0.185,-0.1879,-0.1888,-0.194,-0.1957,-0.1985,-0.2006,-0.2046,-0.2075,-0.211,-0.2135,-0.2165,-0.217,-0.217,-0.2159,-0.2143,-0.2152,-0.2204,-0.2171,-0.2172,-0.2172,-0.2172,-0.2173,-0.1686,-0.1696,-0.1735,-0.1762,-0.1789,-0.1815,-0.1829,-0.1862,-0.1886,-0.1922,-0.1947,-0.1973,-0.201,-0.2061,-0.2084,-0.2105,-0.2118,-0.2118,-0.2118,-0.2118,-0.2113,-0.2139,-0.2112,-0.2112,-0.2112,-0.2113,-0.2113,0,-0.1646,-0.1673,-0.1697,-0.1737,-0.1758,-0.1784,-0.1818,-0.1834,-0.1856,-0.1888,-0.1913,-0.1945,-0.1974,-0.2015,-0.2046,-0.2055,-0.2069,-0.2062,-0.2062,-0.2067,-0.21,-0.2097,-0.205,-0.205,-0.205,-0.205,-0.205,-0.205,-0.1628,-0.1646,-0.167,-0.1702,-0.1729,-0.1755,-0.1773,-0.1797,-0.1823,-0.1857,-0.1881,-0.1907,-0.1943,-0.1977,-0.2004,-0.2016,-0.2025,-0.2014,-0.2029,-0.2059,-0.2065,-0.207,-0.2068,-0.2015,-0.2015,-0.1995,-0.1995,-0.1994]}]]